Tracking 25198 objects as of 16-Jan-2022
HD Live streaming from Space Station
objects crossing your sky now

THOR ABLESTAR DEB

Track THOR ABLESTAR DEB now!
10-day predictions


NORAD ID: 350
Int'l Code: 1961-015DQ
Perigee: 733.0 km
Apogee: 926.4 km
Inclination: 66.9 °
Period: 101.3 minutes
Semi major axis: 7200 km
RCS: 0.1129 m2 (medium)
Launch date: June 29, 1961
Source: United States (US)
Launch site: AIR FORCE EASTERN TEST RANGE (AFETR)

Note: This is SATELLITE DEBRIS
aabbcc
Your satellite tracking list
Your tracking list is empty




NASA's NSSDC Master Catalog

Two Line Element Set (TLE):
1 00350U 61015DQ  22015.76241715 -.00000059  00000-0  99809-5 0  9999
2 00350  66.9132  38.2155 0134278 290.5812  68.0921 14.20832002133615
Source of the keplerian elements: AFSPC